Home   Weather   Bastia   Past weeks

Flag for France Past Weather in Bastia, Corsica, France — Yesterday and Last 2 Weeks

Now
59 °F

Clear.


Feels Like: 58 °F
Forecast: 65 / 75 °F
Wind: 6 mph from Southwest

Location: Bastia Airport

Current Time: Oct 1, 2016 at 7:07:12 AM

Latest Report: Oct 1, 2016 at 6:30 AM


Visibility: 10 mi

Pressure: 30.04 "Hg

Humidity: 82%

Dew Point: 54 °F

Location of BastiaLocation

Past Weather in Bastia — Graph

°F

Bastia Temperature Yesterday

Maximum temperature yesterday: 75 °F (at 12:00 PM)
Minimum temperature yesterday: 59 °F (at 5:00 AM)
Average temperature yesterday: 67 °F

High & Low Weather Summary for the Past Weeks

 TemperatureHumidityPressure
High79 °F (Sep 16, 3:00 PM)94% (Sep 16, 6:30 AM)30.39 "Hg (Sep 16, 6:30 AM)
Low57 °F (Sep 28, 7:30 AM)34% (Sep 28, 2:05 PM)29.80 "Hg (Sep 18, 12:30 PM)
Average69 °F67%30.07 "Hg
* Reported Sep 16 6:00 AM — Oct 1 6:00 AM, Bastia, Weather by CustomWeather, © 2016

Note: Actual official high and low records may vary slightly from our data, if they occured in-between our weather recording intervals... More about our weather records

Advertising

Bastia Weather History for the Previous 24 Hours

Scroll right to see more
 ConditionsComfort  
Time TempWeatherWind HumidityBarometerVisibility
6:00 AM
Sat, Oct 1
61 °FClear.6 mph83%30.01 "Hg10 mi
5:30 AM59 °FClear.5 mph82%30.04 "Hg10 mi
5:00 AM61 °FClear.5 mph83%30.04 "Hg10 mi
4:30 AM63 °FClear.6 mph77%30.04 "Hg10 mi
4:00 AM63 °FClear.7 mph77%30.04 "Hg10 mi
3:30 AM61 °FPassing clouds.6 mph77%30.04 "HgN/A
3:00 AM64 °FPassing clouds.3 mph73%30.07 "HgN/A
2:30 AM61 °FPassing clouds.5 mph83%30.07 "HgN/A
2:00 AM59 °FClear.5 mph88%30.09 "Hg10 mi
1:30 AM61 °FPassing clouds.3 mph83%30.09 "HgN/A
1:00 AM61 °FClear.3 mph83%30.09 "Hg10 mi
12:30 AM61 °FClear.3 mph83%30.09 "Hg10 mi
12:00 AM61 °FClear.5 mph83%30.09 "Hg10 mi
11:30 PM
Fri, Sep 30
61 °FClear.3 mph83%30.12 "Hg10 mi
11:00 PM61 °FClear.3 mph83%30.12 "Hg10 mi
10:30 PM61 °FClear.2 mph88%30.12 "Hg10 mi
10:05 PM61 °FPassing clouds.No wind83%30.12 "HgN/A
9:30 PM63 °FPassing clouds.No wind83%30.12 "HgN/A
9:17 PM63 °FPassing clouds.2 mph83%30.12 "HgN/A
8:30 PM64 °FPassing clouds.2 mph83%30.12 "HgN/A
8:00 PM66 °FPassing clouds.2 mph73%30.12 "HgN/A
7:30 PM68 °FPassing clouds.1 mph69%30.09 "HgN/A
7:00 PM70 °FScattered clouds.3 mph64%30.09 "HgN/A
6:30 PM72 °FScattered clouds.5 mph65%30.09 "HgN/A
6:00 PM72 °FScattered clouds.7 mph61%30.12 "HgN/A
5:30 PM73 °FScattered clouds.8 mph57%30.12 "HgN/A
5:00 PM73 °FScattered clouds.8 mph57%30.12 "HgN/A
4:30 PM73 °FScattered clouds.8 mph57%30.12 "HgN/A
4:00 PM75 °FScattered clouds.8 mph50%30.12 "HgN/A
3:30 PM75 °FScattered clouds.7 mph57%30.15 "HgN/A
3:00 PM73 °FScattered clouds.8 mph61%30.15 "HgN/A
2:30 PM73 °FPassing clouds.8 mph57%30.15 "HgN/A
2:00 PM75 °FPassing clouds.9 mph57%30.18 "HgN/A
1:30 PM75 °FPassing clouds.9 mph57%30.18 "HgN/A
1:00 PM75 °FPassing clouds.10 mph57%30.18 "HgN/A
12:34 PM75 °FPassing clouds.9 mph57%30.18 "HgN/A
12:00 PM75 °FPassing clouds.9 mph61%30.18 "HgN/A
11:30 AM73 °FPassing clouds.10 mph61%30.18 "HgN/A
11:00 AM73 °FPassing clouds.7 mph61%30.18 "HgN/A
10:30 AM72 °FPassing clouds.3 mph57%30.18 "HgN/A
10:00 AM70 °FPassing clouds.6 mph57%30.18 "HgN/A
9:30 AM66 °FSunny.7 mph64%30.18 "Hg10 mi
9:00 AM64 °FSunny.6 mph64%30.18 "Hg10 mi
8:30 AM63 °FSunny.6 mph68%30.18 "Hg10 mi
8:00 AM61 °FSunny.7 mph72%30.18 "Hg10 mi
7:30 AM59 °FSunny.3 mph77%30.18 "Hg10 mi
7:14 AM59 °FClear.3 mph77%30.18 "Hg10 mi
Weather by CustomWeather, © 2016

See weather overviewHow to use our weather pages